Simultaneous Nadir Overpasses (SNOs) Predictions

Prediction of SNOs between AURA and NPP Satellite Orbit:

Table of predicted SNOs for the next 14.0 days since TLE Epoch: 6/20/2020
Index Date (AURA) Time (AURA) Lat,Lon (AURA) SZA (AURA ) Date (NPP) Time (NPP) Lat,Lon (NPP) SZA (NPP ) Distance(km) Time Diff (sec)
1 06/20/2020 11:25:07 -79.35, 84.53 110.35 06/20/2020 11:24:14 -79.35, 84.52 110.31 0.24 53
2 06/20/2020 12:14:28 79.54,-106.56 69.38 06/20/2020 12:14:53 79.53,-106.69 69.38 2.67 25
3 06/23/2020 03:41:34 -79.42,-159.10 110.42 06/23/2020 03:41:06 -79.43,-159.08 110.40 0.40 28
4 06/23/2020 04:30:54 79.64, 10.09 69.26 06/23/2020 04:31:44 79.64, 10.00 69.24 1.91 50
5 06/25/2020 19:57:59 -79.53, -42.47 110.49 06/25/2020 19:57:56 -79.53, -42.41 110.50 1.25 3
6 06/25/2020 20:46:34 81.12, 141.11 66.63 06/25/2020 20:47:47 80.90, 141.90 66.47 27.97 73
7 06/28/2020 11:25:05 79.36, -95.42 69.91 06/28/2020 11:24:10 79.36, -95.35 69.94 1.35 55
8 06/28/2020 12:14:25 -79.63, 74.14 110.51 06/28/2020 12:14:47 -79.64, 74.27 110.55 2.46 22
9 07/01/2020 03:41:31 79.46, 21.15 69.94 07/01/2020 03:41:01 79.47, 21.28 69.94 2.90 30
10 07/01/2020 04:30:54 -79.62,-170.06 110.31 07/01/2020 04:31:42 -79.62,-170.17 110.32 2.43 48
11 07/03/2020 19:57:59 79.48, 137.18 70.14 07/03/2020 19:57:55 79.47, 137.11 70.16 1.68 4




NCC Satellite Simultaneous Nadir Overpasses (SNOs) Prediction Service
